Regional Weather Roundup
Issued by NWS

Home | Current Version | Previous Version | Graphics & Text | Print | Product List | Glossary On
Versions: 1 2 3 4 5 6 7 8 9 10 11 12 13 14 15 16 17 18 19 20 21 22 23 24 25 26 27 28 29 30 31 32 33 34 35 36 37 38 39 40 41 42 43 44 45 46 47 48 49 50
000
ASUS43 KOAX 080602
RWRNE

WEATHER ROUNDUP FOR NEBRASKA
NATIONAL WEATHER SERVICE OMAHA NE
100 AM CDT WED JUL 08 2015

NOTES: SATELLITE DATA IS BEING USED TO AUGMENT CLOUD COVER ABOVE
       12000 FEET.
       "FAIR" INDICATES FEW OR NO CLOUDS BELOW 12,000 FEET WITH NO
       SIGNIFICANT WEATHER AND/OR OBSTRUCTIONS TO VISIBILITY.

  * THESE STATIONS DO NOT REPORT WEATHER SUCH AS RAIN...SNOW OR FOG.

NEZ001>004-019>022-054>056-080700-
NEBRASKA PANHANDLE

CITY           SKY/WX    TMP DP  RH WIND       PRES   REMARKS
SCOTTSBLUFF    CLOUDY    63  51  65 E8        30.07F
6HR MIN TEMP:  63; 6HR MAX TEMP:  71;

ALLIANCE       CLOUDY    63  52  67 S10       30.07F
6HR MIN TEMP:  63; 6HR MAX TEMP:  68;

CHADRON        MOCLDY    65  50  58 S14       30.02F
6HR MIN TEMP:  64; 6HR MAX TEMP:  73;

KIMBALL          N/A    N/A N/A N/A MISG        N/A
SIDNEY         MOCLDY    60  49  66 SE9       30.10F
6HR MIN TEMP:  58; 6HR MAX TEMP:  70;

$$

NEZ057>060-069>072-079>082-080700-
SOUTHWEST NEBRASKA

CITY           SKY/WX    TMP DP  RH WIND       PRES   REMARKS
NORTH PLATTE   CLOUDY    63  54  72 SE5       30.09F
6HR MIN TEMP:  62; 6HR MAX TEMP:  73;

IMPERIAL       CLOUDY    64  49  57 SE10      30.09F
6HR MIN TEMP:  64; 6HR MAX TEMP:  72;

LEXINGTON      PTCLDY    60  55  83 SE5       30.11S
MCCOOK         MOCLDY    61  51  70 E12       30.08F
6HR MIN TEMP:  61; 6HR MAX TEMP:  74;

$$

NEZ005>010-023>029-035>040-094-080700-
NORTH CENTRAL NEBRASKA

CITY           SKY/WX    TMP DP  RH WIND       PRES   REMARKS
VALENTINE      MOCLDY    62  53  72 S13       30.06F
6HR MIN TEMP:  60; 6HR MAX TEMP:  72;

AINSWORTH      PTCLDY    58  52  80 S9        30.09F
BROKEN BOW     MOCLDY    57  53  86 E3        30.10F
6HR MIN TEMP:  57; 6HR MAX TEMP:  74;

ORD            PTCLDY    53  49  86 CALM      30.10S
6HR MIN TEMP:  53; 6HR MAX TEMP:  73;

$$

NEZ041-046>049-061>064-073>077-083>087-080700-
SOUTH CENTRAL NEBRASKA

CITY           SKY/WX    TMP DP  RH WIND       PRES   REMARKS
GRAND ISLAND   CLEAR     56  51  84 E5        30.11F
6HR MIN TEMP:  56; 6HR MAX TEMP:  70;

AURORA         CLEAR     55  53  93 E3        30.10F
HASTINGS       PTCLDY    58  49  72 SE5       30.10F
6HR MIN TEMP:  57; 6HR MAX TEMP:  71;

KEARNEY *      PTCLDY    57  52  82 SE3       30.11S
$$

NEZ011>018-030>034-042>045-080700-
NORTHEAST NEBRASKA

CITY           SKY/WX    TMP DP  RH WIND       PRES   REMARKS
NORFOLK        CLEAR     54  52  93 CALM      30.10F
6HR MIN TEMP:  53; 6HR MAX TEMP:  71;

FREMONT        PTCLDY    61  52  73 CALM      30.10F
TEKAMAH        PTCLDY    55  52  89 CALM      30.10S
6HR MIN TEMP:  55; 6HR MAX TEMP:  72;

$$

NEZ050>053-065>068-078-088>093-080700-
SOUTHEAST NEBRASKA

CITY           SKY/WX    TMP DP  RH WIND       PRES   REMARKS
LINCOLN        CLEAR     59  53  80 CALM      30.10S
6HR MIN TEMP:  56; 6HR MAX TEMP:  72;

OMAHA EPPLEY   CLEAR     60  54  80 CALM      30.09F
6HR MIN TEMP:  57; 6HR MAX TEMP:  72;

BEATRICE       CLEAR     58  53  83 NE5       30.09S
FALLS CITY     CLOUDY    62  58  86 CALM      30.07F
6HR MIN TEMP:  62; 6HR MAX TEMP:  71;

NEBRASKA CITY  PTCLDY    58  50  75 CALM      30.09S
PLATTSMOUTH    CLEAR     58  52  80 NE6       30.09S
$$

NEZ044-045-051>053-067-080700-
OMAHA AREA

CITY           SKY/WX    TMP DP  RH WIND       PRES   REMARKS
OMAHA EPPLEY   CLEAR     60  54  80 CALM      30.09F
6HR MIN TEMP:  57; 6HR MAX TEMP:  72;

FREMONT        PTCLDY    61  52  73 CALM      30.10F
MILLARD        CLEAR     58  55  89 CALM      30.09S
OFFUTT AFB     CLEAR     57  53  86 NE5       30.08F
PLATTSMOUTH    CLEAR     58  52  80 NE6       30.09S
WAHOO          FAIR      56  54  91 NE3       30.09S
$$



USA.gov is the U.S. government's official web portal to all federal, state and local government web resources and services.